Back to catalog

STARLINK-3386

AliveCommunicationsVLEO
NORAD 51126·PAYLOAD·🇺🇸 United States

Launched Jan 19, 2022 from Cape Canaveral Space Force Station

Loading…

Next Passes (next 24 hours)

TLE

FreshSource: CelesTrak SupGP

Epoch: Sep 14, 2026, 14:16 UTC

1 51126C 22005Y   26257.59493056  .00043645  00000+0  14047-2 0  2573
2 51126  53.1572 157.3923 0001497 101.5851  66.9181 15.31653060    14

Track STARLINK-3386 in real time with AllMySat

Download on the App Store